TimeEDT,TemperatureF,Dew PointF,Humidity,Sea Level PressureIn,VisibilityMPH,Wind Direction,Wind SpeedMPH,Gust SpeedMPH,PrecipitationIn,Events,Conditions,WindDirDegrees,DateUTC
12:53 AM,75.0,71.1,87,29.88,10.0,Calm,Calm,-,N/A,,Clear,0,2012-10-20 04:53:00
1:53 AM,75.9,71.1,85,29.88,10.0,Calm,Calm,-,N/A,,Mostly Cloudy,0,2012-10-20 05:53:00
2:25 AM,75.2,71.6,89,29.88,10.0,Calm,Calm,-,N/A,,Scattered Clouds,0,2012-10-20 06:25:00
2:53 AM,75.9,72.0,87,29.87,10.0,North,4.6,-,N/A,,Mostly Cloudy,350,2012-10-20 06:53:00
3:26 AM,75.2,71.6,89,29.86,10.0,NNW,10.4,-,0.05,,Mostly Cloudy,340,2012-10-20 07:26:00
3:53 AM,75.9,72.0,87,29.86,10.0,NNW,9.2,-,0.05,,Mostly Cloudy,340,2012-10-20 07:53:00
4:53 AM,75.0,69.1,82,29.88,10.0,NNW,8.1,-,N/A,,Mostly Cloudy,340,2012-10-20 08:53:00
5:53 AM,75.0,64.9,71,29.89,10.0,NNW,8.1,-,N/A,,Mostly Cloudy,340,2012-10-20 09:53:00
6:53 AM,73.9,62.1,66,29.91,10.0,NNW,8.1,-,N/A,,Clear,340,2012-10-20 10:53:00
7:53 AM,73.0,62.1,68,29.93,10.0,NNE,11.5,-,N/A,,Partly Cloudy,30,2012-10-20 11:53:00
8:53 AM,73.0,60.1,64,29.95,10.0,NE,9.2,-,N/A,,Partly Cloudy,50,2012-10-20 12:53:00
9:53 AM,75.0,57.9,55,29.96,10.0,NNE,6.9,-,N/A,,Partly Cloudy,30,2012-10-20 13:53:00
10:53 AM,77.0,59.0,54,29.97,10.0,NNE,5.8,-,N/A,,Clear,20,2012-10-20 14:53:00
11:53 AM,79.0,60.1,52,29.96,10.0,Variable,4.6,-,N/A,,Clear,0,2012-10-20 15:53:00
12:53 PM,80.1,61.0,52,29.94,10.0,NNE,6.9,-,N/A,,Clear,30,2012-10-20 16:53:00
1:53 PM,81.0,60.1,49,29.92,10.0,NNE,4.6,-,N/A,,Clear,20,2012-10-20 17:53:00
2:53 PM,82.0,57.9,44,29.90,10.0,NNW,9.2,-,N/A,,Clear,340,2012-10-20 18:53:00
3:53 PM,81.0,57.9,45,29.90,10.0,NNW,11.5,-,N/A,,Clear,330,2012-10-20 19:53:00
4:53 PM,79.0,55.9,45,29.90,10.0,North,8.1,18.4,N/A,,Clear,350,2012-10-20 20:53:00
5:53 PM,75.9,52.0,43,29.91,10.0,North,9.2,-,N/A,,Clear,350,2012-10-20 21:53:00
6:53 PM,73.0,52.0,48,29.92,10.0,North,9.2,-,N/A,,Clear,350,2012-10-20 22:53:00
7:53 PM,71.1,54.0,55,29.92,10.0,North,6.9,-,N/A,,Clear,350,2012-10-20 23:53:00
8:53 PM,71.1,54.0,55,29.95,10.0,North,6.9,-,N/A,,Clear,360,2012-10-21 00:53:00
9:53 PM,71.1,55.0,57,29.96,10.0,North,5.8,-,N/A,,Clear,350,2012-10-21 01:53:00
10:53 PM,69.1,55.0,61,29.98,10.0,NNW,8.1,-,N/A,,Clear,340,2012-10-21 02:53:00
11:53 PM,70.0,55.0,59,29.99,10.0,North,5.8,-,N/A,,Clear,350,2012-10-21 03:53:00